Location: *
(55.6049°S, 142.1985°W)
Time: 01:13:31
(UTC+00:00)

HJ-1C - Pass Details

Date: 12 May 2021
Orbit: 425 x 440 km, 97.1° (Epoch: 23 June)

Event Time Altitude Azimuth Distance (km) Brightness Sun altitude
Rises 16:06:45 0° 17° (NNE) 2,409 7.6 -9.3°
Reaches altitude 10° 16:08:45 10° 17° (NNE) 1,548 6.6 -9.1°
Maximum altitude 16:12:04 86° 103° (ESE) 448 3.4 -8.6°
Drops below altitude 10° 16:15:27 10° 193° (SSW) 1,569 5.8 -8.2°
Sets 16:17:29 0° 193° (SSW) 2,446 6.8 -7.9°
